Location: Breitenfeld
(46.8500°N, 15.6333°E)
Time: 21:48:14
(UTC+00:00)

Tiangong - Pass Details

Date: 01 December 2022
Orbit: 382 x 386 km, 41.5° (Epoch: 06 February)

Event Time Altitude Azimuth Distance (km) Brightness Sun altitude
Rises 16:07:32 0° 207° (SSW) 2,240 2.6 -9.4°
Reaches altitude 10° 16:11:00 10° 166° (SSE) 1,394 0.8 -10.0°
Maximum altitude 16:11:44 11° 153° (SSE) 1,359 0.6 -10.1°
Drops below altitude 10° 16:12:29 10° 139° (SE) 1,396 0.5 -10.2°
Enters shadow 16:13:51 - 118° (ESE) 1,630 0.7 -10.5°
